Home > Weather > Perg > Past weeks

Flag for Austria Past Weather in Perg, Upper Austria, Austria — Yesterday and Last 2 Weeks

Now
83 °F

Warm.


Feels Like: 85 °F
Forecast: 63 / 82 °F
Wind: 2 mph from Southeast

Location: Amstetten

Current Time: Jul 23, 2016 at 5:11:27 PM

Latest Report: Jul 23, 2016 at 4:00 PM


Visibility: N/A

Pressure: 29.96 "Hg

Humidity: 58%

Dew Point: 66 °F

Location of PergLocation

Past Weather in Perg — Graph

°F

Perg Temperature Yesterday

Maximum temperature yesterday: 82 °F (at 6:00 PM)
Minimum temperature yesterday: 66 °F (at 11:00 PM)
Average temperature yesterday: 73 °F

High & Low Weather Summary for the Past Weeks

 TemperatureHumidityPressure
High92 °F (Jul 11, 4:00 PM)100% (Jul 18, 6:00 AM)30.29 "Hg (Jul 18, 6:00 AM)
Low50 °F (Jul 15, 4:00 AM)36% (Jul 11, 5:00 PM)29.78 "Hg (Jul 12, 8:00 PM)
Average68 °F78%30.04 "Hg
* Reported Jul 8 4:00 PM — Jul 23 4:00 PM, Perg, Weather by CustomWeather, © 2016

Note: Actual official high and low records may vary slightly from our data, if they occured in-between our weather recording intervals... More about our weather records

Advertising

Perg Weather History for the Previous 24 Hours

Scroll right to see more
 ConditionsComfort  
Time TempWeatherWind HumidityBarometerVisibility
4:00 PM
Sat, Jul 23
83 °FWarm.2 mph58%29.96 "HgN/A
3:00 PM82 °FWarm.1 mph58%29.98 "HgN/A
2:00 PM80 °FWarm.1 mph61%29.98 "HgN/A
1:00 PM79 °FWarm.1 mph64%30.00 "HgN/A
12:00 PM76 °FMild.1 mph67%30.01 "HgN/A
11:00 AM74 °FMild.1 mph73%30.01 "HgN/A
10:00 AM72 °FMild.2 mph80%30.02 "HgN/A
9:00 AM69 °FMild.1 mph86%30.03 "HgN/A
8:00 AM66 °FMild.No wind97%30.03 "HgN/A
7:00 AM65 °FMild.1 mph99%30.02 "HgN/A
6:00 AM64 °FMild.1 mph99%30.01 "HgN/A
5:00 AM64 °FMild.No wind99%30.00 "HgN/A
4:00 AM63 °FMild.1 mph100%29.99 "HgN/A
3:00 AM63 °FMild.1 mph100%30.00 "HgN/A
2:00 AM64 °FMild.No wind100%30.00 "HgN/A
1:00 AM65 °FMild.No wind99%30.00 "HgN/A
12:00 AM65 °FFog.1 mph99%30.00 "HgN/A
11:00 PM
Fri, Jul 22
66 °FMild.1 mph93%30.00 "HgN/A
10:00 PM67 °FMild.5 mph87%30.00 "HgN/A
9:00 PM75 °FMild.1 mph71%29.93 "HgN/A
8:00 PM78 °FWarm.2 mph65%29.93 "HgN/A
7:00 PM80 °FWarm.3 mph59%29.91 "HgN/A
6:00 PM82 °FWarm.3 mph54%29.90 "HgN/A
5:00 PM82 °FWarm.3 mph56%29.92 "HgN/A
Weather by CustomWeather, © 2016

See weather overviewHow to use our weather pages